Volver al catálogo

STARLINK-6028

ActivoComunicacionesVLEO
NORAD 56818·PAYLOAD·🇺🇸 United States

Lanzado May 31, 2023 desde Vandenberg Space Force Base

Loading…

Próximos Pases (próximas 24 horas)

TLE

ActualizadoSource: CelesTrak SupGP

Época: Sep 14, 2026, 21:17 UTC

1 56818C 23078BD  26257.88729167  .00030868  00000+0  25865-2 0  2577
2 56818  70.0013 227.2405 0003703 268.5469 125.4497 14.98318775    12

Sigue STARLINK-6028 en tiempo real con AllMySat

Download on the App Store